When you browse on this site, cookies collect data to enhance your experience and personalize the content and advertising you see.
Visit our Privacy Policy to learn more. By continuing to use the site, you agree to this use of cookies and data.
  • In Austria
  • List of Countries
  • For 7 days
  • Water Temperature
  • Satellite Maps
  • Weather Map
  • News
  • Weather Widgets
  • user-avatar
    Login

    Hourly Weather Mayrhofen

    Today, 25 March, Monday

    Time Temperature Precipitation Wind Pressure Humidity
    00:00 +2°C° 0.1 mm 2 mps 617 mmHg 96%
    01:00 +3°C° 0 mm 1 mps 617 mmHg 97%
    02:00 +3°C° 0 mm 1 mps 616 mmHg 97%
    03:00 +2°C° 0 mm 1 mps 616 mmHg 97%
    04:00 +1°C° 0 mm 2 mps 616 mmHg 96%
    05:00 +1°C° 0.1 mm 2 mps 616 mmHg 96%
    06:00 +1°C° 0.1 mm 2 mps 615 mmHg 96%
    07:00 +1°C° 0 mm 2 mps 615 mmHg 96%
    08:00 +1°C° 0.1 mm 2 mps 615 mmHg 94%
    09:00 +2°C° 0.1 mm 2 mps 615 mmHg 92%
    10:00 +2°C° 0.1 mm 2 mps 615 mmHg 90%
    11:00 +1°C° 0.3 mm 3 mps 615 mmHg 88%
    12:00 +1°C° 0.3 mm 3 mps 615 mmHg 87%
    13:00 +1°C° 0.3 mm 3 mps 614 mmHg 86%
    14:00 -1°C° 0.4 mm 4 mps 614 mmHg 86%
    15:00 -2°C° 0.4 mm 4 mps 614 mmHg 86%
    16:00 -2°C° 0.4 mm 4 mps 613 mmHg 87%
    17:00 -4°C° 0.5 mm 4 mps 613 mmHg 89%
    18:00 -5°C° 0.5 mm 4 mps 613 mmHg 91%
    19:00 -7°C° 0.5 mm 4 mps 613 mmHg 93%
    20:00 -8°C° 0.2 mm 4 mps 613 mmHg 92%
    21:00 -9°C° 0.2 mm 4 mps 614 mmHg 92%
    22:00 -9°C° 0.2 mm 4 mps 614 mmHg 92%
    23:00 -9°C° 0.2 mm 4 mps 615 mmHg 91%

    Tomorrow, 26 March, Tuesday

    Time Temperature Precipitation Wind Pressure Humidity
    00:00 -10°C° 0.2 mm 4 mps 615 mmHg 91%
    01:00 -9°C° 0.2 mm 3 mps 615 mmHg 91%
    02:00 -9°C° 0.2 mm 3 mps 616 mmHg 91%
    03:00 -9°C° 0.2 mm 3 mps 616 mmHg 91%
    04:00 -9°C° 0.2 mm 3 mps 616 mmHg 91%
    05:00 -9°C° 0.1 mm 3 mps 616 mmHg 90%
    06:00 -10°C° 0.1 mm 3 mps 617 mmHg 90%
    07:00 -9°C° 0.1 mm 2 mps 617 mmHg 90%
    08:00 -9°C° 0 mm 3 mps 617 mmHg 83%
    09:00 -7°C° 0 mm 3 mps 618 mmHg 77%
    10:00 -6°C° 0 mm 3 mps 619 mmHg 71%
    11:00 -5°C° 0 mm 3 mps 619 mmHg 70%
    12:00 -5°C° 0 mm 3 mps 619 mmHg 69%
    13:00 -4°C° 0 mm 3 mps 619 mmHg 68%
    14:00 -4°C° 0 mm 3 mps 619 mmHg 69%
    15:00 -4°C° 0 mm 3 mps 619 mmHg 70%
    16:00 -4°C° 0 mm 3 mps 619 mmHg 70%
    17:00 -6°C° 0 mm 3 mps 618 mmHg 77%
    18:00 -6°C° 0 mm 2 mps 618 mmHg 85%
    19:00 -8°C° 0 mm 2 mps 618 mmHg 92%
    20:00 -8°C° 0 mm 2 mps 618 mmHg 92%
    21:00 -9°C° 0 mm 2 mps 619 mmHg 92%
    22:00 -8°C° 0 mm 1 mps 619 mmHg 92%
    23:00 -8°C° 0 mm 1 mps 619 mmHg 91%

    Day after tomorrow, 27 March, Wednesday

    Time Temperature Precipitation Wind Pressure Humidity
    00:00 -9°C° 0 mm 1 mps 619 mmHg 91%
    01:00 -9°C° 0 mm 1 mps 619 mmHg 90%
    02:00 -9°C° 0 mm 1 mps 619 mmHg 90%
    03:00 -9°C° 0 mm 1 mps 618 mmHg 89%
    04:00 -9°C° 0 mm 1 mps 618 mmHg 89%
    05:00 -9°C° 0 mm 1 mps 619 mmHg 87%
    06:00 -8°C° 0 mm 1 mps 619 mmHg 86%
    07:00 -8°C° 0 mm 1 mps 619 mmHg 84%
    08:00 -7°C° 0 mm 2 mps 620 mmHg 79%
    09:00 -5°C° 0 mm 2 mps 620 mmHg 74%
    10:00 -4°C° 0 mm 2 mps 621 mmHg 69%
    11:00 -3°C° 0 mm 2 mps 621 mmHg 71%
    12:00 -2°C° 0 mm 3 mps 621 mmHg 73%
    13:00 -1°C° 0 mm 3 mps 621 mmHg 75%
    14:00 -2°C° 0.1 mm 3 mps 621 mmHg 76%
    15:00 -2°C° 0.1 mm 3 mps 621 mmHg 77%
    16:00 -2°C° 0.1 mm 3 mps 621 mmHg 79%
    17:00 -3°C° 0 mm 2 mps 621 mmHg 84%
    18:00 -4°C° 0 mm 2 mps 620 mmHg 89%
    19:00 -6°C° 0 mm 2 mps 620 mmHg 93%
    20:00 -6°C° 0 mm 2 mps 621 mmHg 93%
    21:00 -6°C° 0 mm 1 mps 621 mmHg 93%
    22:00 -6°C° 0 mm 1 mps 621 mmHg 93%
    23:00 -6°C° 0 mm 1 mps 621 mmHg 92%

    28 March, Thursday

    Time Temperature Precipitation Wind Pressure Humidity
    00:00 -7°C° 0 mm 1 mps 621 mmHg 91%
    01:00 -7°C° 0 mm 1 mps 621 mmHg 90%
    02:00 -7°C° 0 mm 1 mps 621 mmHg 88%
    03:00 -7°C° 0 mm 1 mps 621 mmHg 86%
    04:00 -7°C° 0 mm 1 mps 621 mmHg 84%
    05:00 -7°C° 0 mm 1 mps 621 mmHg 83%
    06:00 -6°C° 0 mm 1 mps 621 mmHg 82%
    07:00 -6°C° 0 mm 1 mps 622 mmHg 81%
    08:00 -5°C° 0 mm 2 mps 622 mmHg 78%
    09:00 -2°C° 0 mm 2 mps 623 mmHg 74%
    10:00 +1°C° 0 mm 2 mps 624 mmHg 71%
    11:00 +1°C° 0 mm 2 mps 624 mmHg 71%
    12:00 +2°C° 0 mm 2 mps 624 mmHg 71%
    13:00 +3°C° 0 mm 2 mps 624 mmHg 71%
    14:00 +3°C° 0 mm 2 mps 623 mmHg 72%
    15:00 +2°C° 0 mm 2 mps 623 mmHg 74%
    16:00 +2°C° 0 mm 2 mps 623 mmHg 75%
    17:00 +1°C° 0 mm 2 mps 623 mmHg 81%
    18:00 -2°C° 0 mm 2 mps 622 mmHg 87%
    19:00 -3°C° 0 mm 2 mps 622 mmHg 93%
    20:00 -2°C° 0 mm 1 mps 622 mmHg 93%
    21:00 -3°C° 0 mm 1 mps 622 mmHg 94%
    22:00 -3°C° 0 mm 1 mps 623 mmHg 94%
    23:00 -3°C° 0 mm 1 mps 623 mmHg 92%

    29 March, Friday

    Time Temperature Precipitation Wind Pressure Humidity
    00:00 -4°C° 0 mm 1 mps 622 mmHg 90%
    01:00 -4°C° 0 mm 1 mps 622 mmHg 88%
    02:00 -4°C° 0 mm 1 mps 622 mmHg 85%
    03:00 -4°C° 0 mm 1 mps 622 mmHg 83%
    04:00 -4°C° 0 mm 1 mps 622 mmHg 81%
    05:00 -4°C° 0 mm 1 mps 622 mmHg 79%
    06:00 -3°C° 0 mm 1 mps 623 mmHg 76%
    07:00 -3°C° 0 mm 1 mps 623 mmHg 73%
    08:00 0°C° 0 mm 1 mps 624 mmHg 68%
    09:00 +2°C° 0 mm 1 mps 624 mmHg 62%
    10:00 +5°C° 0 mm 1 mps 625 mmHg 56%
    11:00 +5°C° 0 mm 1 mps 625 mmHg 55%
    12:00 +6°C° 0 mm 1 mps 625 mmHg 55%
    13:00 +7°C° 0 mm 1 mps 625 mmHg 54%
    14:00 +7°C° 0 mm 1 mps 625 mmHg 55%
    15:00 +7°C° 0 mm 1 mps 625 mmHg 56%
    16:00 +7°C° 0 mm 1 mps 624 mmHg 56%
    17:00 +5°C° 0 mm 1 mps 624 mmHg 61%
    18:00 +3°C° 0 mm 1 mps 623 mmHg 66%
    19:00 0°C° 0 mm 1 mps 622 mmHg 70%
    20:00 0°C° 0 mm 1 mps 622 mmHg 68%
    21:00 -2°C° 0 mm 2 mps 623 mmHg 65%
    22:00 -3°C° 0 mm 2 mps 623 mmHg 63%
    23:00 -3°C° 0 mm 2 mps 623 mmHg 62%

    30 March, Saturday

    Time Temperature Precipitation Wind Pressure Humidity
    00:00 -3°C° 0 mm 2 mps 622 mmHg 61%
    01:00 -3°C° 0 mm 2 mps 622 mmHg 60%
    02:00 -3°C° 0 mm 2 mps 622 mmHg 59%
    03:00 -3°C° 0 mm 2 mps 622 mmHg 58%
    04:00 -3°C° 0 mm 2 mps 622 mmHg 57%
    05:00 -3°C° 0 mm 2 mps 622 mmHg 55%
    06:00 -3°C° 0 mm 2 mps 622 mmHg 53%
    07:00 -2°C° 0 mm 2 mps 622 mmHg 51%
    08:00 +2°C° 0 mm 1 mps 623 mmHg 48%
    09:00 +5°C° 0 mm 1 mps 623 mmHg 46%
    10:00 +8°C° 0 mm 1 mps 624 mmHg 44%
    11:00 +9°C° 0 mm 1 mps 624 mmHg 42%
    12:00 +10°C° 0 mm 1 mps 624 mmHg 41%
    13:00 +10°C° 0 mm 1 mps 624 mmHg 40%
    14:00 +10°C° 0 mm 1 mps 623 mmHg 41%
    15:00 +10°C° 0 mm 1 mps 623 mmHg 42%
    16:00 +10°C° 0 mm 1 mps 622 mmHg 43%
    17:00 +7°C° 0 mm 1 mps 621 mmHg 51%
    18:00 +3°C° 0 mm 0 mps 620 mmHg 59%
    19:00 +1°C° 0 mm 0 mps 619 mmHg 68%
    20:00 +1°C° 0 mm 1 mps 619 mmHg 65%
    21:00 +1°C° 0 mm 1 mps 619 mmHg 62%
    22:00 +1°C° 0 mm 1 mps 619 mmHg 60%
    23:00 0°C° 0 mm 1 mps 618 mmHg 58%
    Show more